Location: Bakersfield
(35.3730°N, 119.0180°W)
Time: 10:50:42
(UTC-07:00)

Daily predictions for brighter satellites

Satellite Brightness Start Highest point End
(mag) Time Altitude Azimuth Time Altitude Azimuth Time Altitude Azimuth
H-2A R/B 4.1 19:36:39 10° WSW 19:42:00 57° S 20:26:52 10° ESE
H-2A R/B 4.1 19:36:39 10° WSW 19:42:00 57° S 20:26:53 10° ESE
H-2A R/B 4.1 19:36:39 10° WSW 19:42:00 57° S 20:26:49 10° ESE
H-2A R/B 4.1 19:36:39 10° WSW 19:42:00 57° S 20:26:54 10° ESE
H-2A R/B 4.1 19:36:39 10° WSW 19:42:00 57° S 20:26:58 10° ESE
H-2A R/B 4.1 19:36:39 10° WSW 19:42:00 57° S 20:26:55 10° ESE
DNEPR-1 R/B 4.3 19:51:12 10° SSW 19:57:38 86° ESE 20:02:53 10° NNE
OAO 3 Rocket 3.4 19:56:21 10° WSW 20:01:08 58° SSE 20:05:59 10° E
FREGAT/IRIS 3.5 19:58:21 10° S 20:01:19 54° W 20:04:18 10° NNW
Resurs 01 Rocket 1.9 20:01:50 10° SSE 20:06:09 52° ENE 20:10:29 10° N
Cosmos 1331 Rocket 4.1 20:01:06 10° SSW 20:06:24 89° WNW 20:11:45 10° NNE
Helios 1A 4.4 20:04:17 10° ESE 20:07:32 22° ENE 20:10:48 10° NNE
Atlas Centaur 2 3.8 20:04:26 10° SSW 20:10:01 27° SSE 20:16:27 10° E
HJ-1C 3.6 20:08:26 10° S 20:11:52 78° WSW 20:15:19 10° NNW
Cosmos 1242 Rocket 3.8 20:09:00 10° SSW 20:12:34 46° W 20:16:06 10° N
USA 234 4.1 20:08:00 10° E 20:13:54 37° NE 20:19:48 10° NNW
Cosmos 2360 4.2 20:10:57 10° S 20:16:37 69° ESE 20:22:20 10° NNE
ATLAS CENTAUR R/B 1.8 20:18:03 10° NW 20:20:41 86° SW 20:27:16 10° SE
Cosmos 1408 4.4 20:21:04 10° NE 20:23:21 16° ENE 20:24:35 14° E
Molniya-1 1.9 20:23:47 10° SSW 20:25:21 78° ESE 20:27:11 10° NE
Cosmos 1455 2.1 20:21:41 10° S 20:25:29 77° E 20:29:16 10° N
Cosmos 1486 Rocket 4.3 20:24:44 10° N 20:29:48 49° ENE 20:34:21 13° SE
Cosmos 1869 3.6 20:26:23 10° SSE 20:30:05 42° E 20:33:49 10° NNE
OTV 4 0.9 20:29:51 10° W 20:32:37 46° SSW 20:34:14 21° SE
Cosmos 1400 Rocket 3.4 20:36:17 10° NNW 20:40:07 58° W 20:43:59 10° S
USA 186 1.2 20:42:33 17° S 20:44:25 82° WSW 20:47:12 10° NNW
CENTAUR R/B 4.5 20:39:56 10° WSW 20:45:17 31° NW 20:51:14 10° NNE
Cosmos 1892 3.5 20:41:51 10° NNW 20:45:33 52° W 20:49:14 10° S
Milstar 3 3.2 20:38:36 10° WSW 20:46:36 50° S 20:50:57 21° ESE
ALOS 4.3 20:43:35 10° SSW 20:47:31 27° W 20:51:30 10° NW
Gblst 52 Del rocket 4.2 20:43:15 10° NW 20:49:05 82° SW 20:52:45 22° SE
H-2A R/B 4.5 20:46:17 10° SSW 20:49:51 33° W 20:53:24 10° NNW
Cosmos 2026 Rocket 4.2 20:43:57 10° N 20:49:59 50° E 20:54:29 17° SSE
Cosmos 1933 4.3 20:50:28 25° ESE 20:50:55 26° E 20:54:18 10° NNE
Cosmos 1315 Rocket 2.8 20:48:35 10° N 20:52:40 85° W 20:56:10 13° S
YAOGAN 6 3.8 20:54:41 24° E 20:54:57 25° ENE 20:57:57 10° NNE
DELTA 2 R/B (1) 3.6 20:50:47 10° WNW 20:56:23 75° SSW 20:59:32 27° ESE
Cosmos 1707 Rocket 4.5 20:55:39 10° SSW 20:59:58 51° W 21:04:18 10° N
Cosmos 1503 Rocket 4.3 20:55:54 10° N 21:00:58 47° ENE 21:03:11 30° SE
CZ-3B DEB 2.3 21:00:08 10° WNW 21:03:06 22° WSW 21:04:07 17° SSW
Cosmos 1354 Rocket 4.2 20:59:13 10° N 21:04:22 52° ENE 21:06:35 31° SE
Cosmos 2263 Rocket 3.2 20:59:43 10° N 21:04:28 28° ENE 21:06:05 24° E
Cosmos 1634 Rocket 4.2 20:58:13 10° S 21:04:30 77° W 21:10:51 10° N
H-2A R/B 4.1 21:04:41 10° ENE 21:04:45 10° ENE 21:05:35 10° NE
Cosmos 2322 Rocket 2.1 20:59:13 10° SSW 21:04:48 78° ESE 21:10:26 10° NNE
Meteor 1-29 3.4 21:06:08 10° N 21:09:35 64° WNW 21:13:00 10° SSW
Cosmos 1092 Rocket 4.5 21:03:29 10° NNW 21:09:43 63° W 21:15:58 10° S
Cosmos 1733 Rocket 3.4 21:06:20 10° N 21:10:39 47° E 21:11:35 40° ESE
Cosmos 1655 Rocket 4.1 21:05:53 10° N 21:12:14 62° E 21:15:50 26° SSE
Helios 1B rocket 3.3 21:08:44 10° N 21:12:42 50° WNW 21:16:40 10° SSW
Cosmos 1862 Rocket 3.6 21:11:07 33° SSE 21:12:53 58° E 21:17:18 10° NNE
Meteor 2-10 Rocket 4.3 21:11:52 32° SE 21:13:23 38° E 21:18:43 10° NNE
Lacrosse 4 Rocket 1.9 21:11:13 10° NNW 21:15:22 43° ENE 21:16:01 40° E
Cosmos 2360 Rocket 2.7 21:15:51 34° ESE 21:15:56 34° ESE 21:20:58 10° NE
Cosmos 1980 Rocket 4.3 21:12:03 10° WSW 21:16:54 28° WNW 21:21:47 10° N
GENESIS II 4.1 21:13:17 10° SSW 21:17:18 76° ESE 21:21:22 10° NNE
Cosmos 1825 2.0 21:13:39 10° N 21:17:27 83° E 21:18:16 54° SSE
Cosmos 1862 3.3 21:15:40 10° N 21:19:38 56° E 21:19:52 55° E
CZ-4B DEB 3.4 21:20:45 44° SW 21:21:14 50° W 21:24:12 10° NNW
Cosmos 1939 Rocket 3.0 21:21:31 36° S 21:23:05 72° W 21:27:07 10° NNW
Meteor 2-20 Rocket 4.5 21:18:01 10° N 21:24:08 80° W 21:28:33 20° S
Envisat 3.4 21:23:11 20° S 21:26:38 61° W 21:31:40 10° NNW
Cosmos 2242 Rocket 4.3 21:22:33 10° SSW 21:26:59 55° W 21:31:25 10° N
SL-16 R/B 2.6 21:26:16 10° SSW 21:31:51 62° WNW 21:37:30 10° NNE
SPOT 5 3.6 21:34:04 35° ENE 21:34:04 35° ENE 21:38:11 10° N
Cosmos 2266 Rocket 4.4 21:31:54 10° N 21:37:47 41° ENE 21:38:21 40° E
OAO 3 Rocket 3.1 21:39:41 10° W 21:44:38 88° S 21:44:57 78° E
MetOp-B 4.1 21:44:34 59° E 21:45:01 61° ENE 21:50:18 10° N
ATLAS 5 CENTAUR R/B 3.2 21:40:57 10° NNW 21:46:29 36° NE 21:47:28 34° ENE
Cosmos 2279 Rocket 4.5 21:40:43 10° SSW 21:46:52 60° W 21:53:01 10° N
SEDSat Delta rocket 3.8 21:43:11 10° WSW 21:48:41 56° S 21:48:41 56° S
Meteor 1-26 Rocket 4.1 21:48:40 63° SE 21:49:19 69° E 21:55:02 10° NNE
SPOT 1/Viking Rocket 4.4 21:52:06 37° NE 21:52:06 37° NE 21:56:19 10° N
Nimbus 7 Rocket 4.5 21:46:30 10° NNE 21:52:11 56° E 21:52:11 56° E
ARGOS 3.3 21:53:21 55° ENE 21:53:21 55° ENE 21:58:29 10° N
USA 234 3.4 21:54:42 45° S 21:56:37 62° SW 22:03:07 10° NW
Atlas Centaur 2 3.1 21:51:42 10° WSW 21:58:59 52° SSE 21:59:34 52° SSE
Cosmos 489 Rocket 4.5 21:54:21 10° N 22:00:40 64° ENE 22:01:08 62° E
ERBS 4.3 21:57:29 10° NW 21:59:23 28° WNW 21:59:23 28° WNW
ERS-1 Rocket 3.4 22:02:11 51° SW 22:02:54 57° W 22:07:51 10° NNW
Cosmos 1844 Rocket 4.4 22:04:04 10° N 22:07:24 20° NE 22:07:24 20° NE
Sich 1 Rocket 4.3 22:05:35 10° N 22:08:58 51° NNW 22:08:58 51° NNW
MOS 1-B Rocket 3.8 22:16:44 83° E 22:16:46 83° ENE 22:22:31 10° NNW
SeaSat 1 2.8 22:19:46 61° NNW 22:19:46 61° NNW 22:23:49 10° NNW
H-2A R/B 4.2 22:21:27 18° NNE 22:21:27 18° NNE 22:22:49 10° N
USA 245 4.4 22:23:32 75° W 22:23:32 75° W 22:28:59 10° NNW
Meteor 1-14 Rocket 4.3 22:19:43 10° N 22:24:46 72° NNW 22:24:46 72° NNW
USA 229 DEB 3.8 22:39:03 46° WSW 22:41:09 69° WNW 22:48:04 10° NNE
USA 229 3.8 22:39:21 49° WSW 22:41:15 70° WNW 22:48:09 10° NNE
Terra 3.6 22:44:38 26° N 22:44:38 26° N 22:46:46 10° N
H-2A R/B 3.1 22:45:19 40° NNW 22:45:19 40° NNW 22:48:30 10° NNW
COSMOS 2428 4.0 22:46:58 33° NNE 22:46:58 33° NNE 22:49:58 10° NNE
Cosmos 1867 4.4 22:40:13 10° NNW 22:44:01 46° NNW 22:44:01 46° NNW
Cosmos 2263 Rocket 3.4 22:43:24 10° NW 22:47:48 33° W 22:47:48 33° W
Lacrosse 4 Rocket 4.3 22:51:19 10° WNW 22:52:23 13° W 22:52:23 13° W
Cosmos 2360 Rocket 3.9 22:57:26 21° W 22:59:53 29° WNW 23:04:46 10° N
Cosmos 2333 Rocket 4.2 23:28:48 21° NNE 23:28:48 21° NNE 23:30:40 10° NNE
CZ-4C R/B 3.9 23:24:13 10° NNW 23:30:05 36° NE 23:30:05 36° NE
ATLAS 5 CENTAUR R/B 3.9 23:25:32 10° NW 23:29:01 30° WNW 23:29:01 30° WNW
Cosmos 2237 Rocket 4.4 23:38:23 18° NNE 23:38:23 18° NNE 23:39:44 10° NNE
Cosmos 2278 Rocket 4.1 23:35:30 10° N 23:37:59 26° N 23:37:59 26° N
